BER8SH LIME-EDDK

Flight info

Callsign BER8SH
Flight time 1h 0m
Altitude 30000
Route DILEB DCT ABREG DCT LADOL T163 KOVAN T844 ASKIK T840 GULKO GULKO1B
Aircraft A320/M-SDE3FGHIRWY/LB1

Departure

Time 2026-05-06 18:46
Airport Il Caravaggio International Airport (LIME)

Arrival

Time 2026-05-06 19:47
Airport Cologne Bonn Airport (EDDK)
Time Latitude Longitude Altitude Speed Heading
2026-05-06 18:20 45.66704 9.69675 788 ft 0 kts 195°
2026-05-06 18:37 45.66728 9.69683 760 ft 4 kts 191°
2026-05-06 18:37 45.66746 9.69688 787 ft 4 kts 188°
2026-05-06 18:37 45.66781 9.69691 787 ft 4 kts 169°
2026-05-06 18:37 45.66802 9.69677 787 ft 3 kts 109°
2026-05-06 18:38 45.66805 9.69667 787 ft 0 kts 105°
2026-05-06 18:41 45.66804 9.69671 787 ft 2 kts 105°
2026-05-06 18:41 45.66797 9.69711 787 ft 7 kts 105°
2026-05-06 18:41 45.66780 9.69797 787 ft 11 kts 105°
2026-05-06 18:41 45.66757 9.69921 787 ft 13 kts 105°
2026-05-06 18:42 45.66731 9.70062 787 ft 16 kts 105°
2026-05-06 18:42 45.66700 9.70236 787 ft 20 kts 104°
2026-05-06 18:42 45.66661 9.70439 787 ft 23 kts 105°
2026-05-06 18:42 45.66620 9.70668 787 ft 24 kts 104°
2026-05-06 18:43 45.66586 9.70874 787 ft 19 kts 103°
2026-05-06 18:43 45.66547 9.71061 787 ft 21 kts 111°
2026-05-06 18:43 45.66494 9.71260 787 ft 21 kts 105°
2026-05-06 18:43 45.66459 9.71443 787 ft 12 kts 105°
2026-05-06 18:44 45.66437 9.71569 787 ft 14 kts 98°
2026-05-06 18:44 45.66456 9.71715 787 ft 16 kts 75°
2026-05-06 18:44 45.66468 9.71879 787 ft 18 kts 102°
2026-05-06 18:44 45.66436 9.72060 787 ft 20 kts 105°
2026-05-06 18:45 45.66400 9.72259 787 ft 20 kts 104°
2026-05-06 18:45 45.66373 9.72418 787 ft 14 kts 101°
2026-05-06 18:45 45.66432 9.72480 787 ft 15 kts 324°
2026-05-06 18:45 45.66467 9.72392 787 ft 19 kts 285°
2026-05-06 18:46 45.66582 9.71790 787 ft 90 kts 285°
2026-05-06 18:46 45.66797 9.70629 788 ft 149 kts 285°
2026-05-06 18:46 45.67109 9.69032 1024 ft 175 kts 287°
2026-05-06 18:46 45.67314 9.67924 1497 ft 174 kts 286°
2026-05-06 18:47 45.67624 9.66256 2259 ft 173 kts 284°
2026-05-06 18:47 45.67606 9.64518 2736 ft 187 kts 247°
2026-05-06 18:47 45.66791 9.62986 3014 ft 206 kts 214°
2026-05-06 18:47 45.65403 9.62218 3277 ft 228 kts 188°
2026-05-06 18:48 45.63749 9.61920 3659 ft 251 kts 184°
2026-05-06 18:48 45.61970 9.61691 4375 ft 260 kts 184°
2026-05-06 18:48 45.60150 9.61573 5270 ft 263 kts 177°
2026-05-06 18:48 45.58319 9.61790 6335 ft 266 kts 174°
2026-05-06 18:49 45.56471 9.62092 7184 ft 269 kts 171°
2026-05-06 18:49 45.54730 9.63077 7995 ft 275 kts 145°
2026-05-06 18:49 45.53464 9.65128 8795 ft 284 kts 119°
2026-05-06 18:49 45.52943 9.67869 9589 ft 294 kts 93°
2026-05-06 18:50 45.53275 9.70769 10174 ft 303 kts 71°
2026-05-06 18:50 45.54434 9.73412 10438 ft 329 kts 44°
2026-05-06 18:50 45.56430 9.75127 10792 ft 345 kts 15°
2026-05-06 18:50 45.58820 9.75402 11402 ft 348 kts 350°
2026-05-06 18:51 45.61214 9.74797 12109 ft 352 kts 347°
2026-05-06 18:51 45.63631 9.74123 12837 ft 356 kts 346°
2026-05-06 18:51 45.66042 9.73431 13541 ft 360 kts 346°
2026-05-06 18:51 45.68544 9.72709 14196 ft 364 kts 346°
2026-05-06 18:52 45.71038 9.71997 14822 ft 368 kts 346°
2026-05-06 18:52 45.73530 9.71293 15439 ft 372 kts 346°
2026-05-06 18:52 45.76078 9.70579 16071 ft 375 kts 346°
2026-05-06 18:52 45.78657 9.69857 16704 ft 379 kts 346°
2026-05-06 18:53 45.81260 9.69127 17320 ft 383 kts 346°
2026-05-06 18:53 45.83895 9.68389 17933 ft 388 kts 346°
2026-05-06 18:53 45.86553 9.67645 18496 ft 392 kts 346°
2026-05-06 18:53 45.89248 9.66888 18999 ft 396 kts 346°
2026-05-06 18:54 45.91963 9.66125 19529 ft 400 kts 345°
2026-05-06 18:54 45.94707 9.65353 20042 ft 403 kts 345°
2026-05-06 18:54 45.97477 9.64573 20571 ft 407 kts 345°
2026-05-06 18:54 46.00268 9.63783 21121 ft 411 kts 345°
2026-05-06 18:55 46.03089 9.62982 21684 ft 415 kts 345°
2026-05-06 18:55 46.05930 9.62178 22241 ft 418 kts 345°
2026-05-06 18:55 46.08794 9.61367 22777 ft 422 kts 345°
2026-05-06 18:55 46.11693 9.60544 23293 ft 425 kts 345°
2026-05-06 18:56 46.14607 9.59716 23686 ft 429 kts 345°
2026-05-06 18:56 46.17550 9.58876 24112 ft 432 kts 345°
2026-05-06 18:56 46.20513 9.58029 24531 ft 436 kts 345°
2026-05-06 18:56 46.23496 9.57177 24930 ft 438 kts 344°
2026-05-06 18:57 46.26496 9.56322 25304 ft 441 kts 344°
2026-05-06 18:57 46.29524 9.55461 25698 ft 445 kts 344°
2026-05-06 18:57 46.32529 9.54598 26082 ft 447 kts 343°
2026-05-06 18:57 46.35592 9.53681 26457 ft 450 kts 342°
2026-05-06 18:58 46.38659 9.52725 26855 ft 452 kts 342°
2026-05-06 18:58 46.41746 9.51739 27232 ft 455 kts 341°
2026-05-06 18:58 46.44852 9.50744 27597 ft 459 kts 341°
2026-05-06 18:58 46.47981 9.49746 27904 ft 461 kts 341°
2026-05-06 18:59 46.51129 9.48750 28267 ft 464 kts 341°
2026-05-06 18:59 46.54295 9.47759 28619 ft 467 kts 341°
2026-05-06 18:59 46.57480 9.46770 28956 ft 470 kts 341°
2026-05-06 18:59 46.60695 9.45774 29260 ft 473 kts 341°
2026-05-06 19:00 46.63925 9.44767 29566 ft 476 kts 341°
2026-05-06 19:00 46.67175 9.43745 29839 ft 478 kts 341°
2026-05-06 19:00 46.70410 9.42726 29916 ft 469 kts 340°
2026-05-06 19:00 46.73554 9.41747 29911 ft 457 kts 341°
2026-05-06 19:01 46.76654 9.40778 29916 ft 454 kts 340°
2026-05-06 19:01 46.82830 9.38823 29911 ft 453 kts 340°
2026-05-06 19:02 46.88994 9.36855 29916 ft 453 kts 340°
2026-05-06 19:02 46.95108 9.34903 29917 ft 452 kts 340°
2026-05-06 19:03 47.01262 9.32941 29913 ft 452 kts 341°
2026-05-06 19:03 47.07424 9.30977 29918 ft 453 kts 341°
2026-05-06 19:04 47.13586 9.29010 29924 ft 453 kts 341°
2026-05-06 19:04 47.19743 9.27041 29934 ft 452 kts 341°
2026-05-06 19:05 47.25850 9.25084 29931 ft 452 kts 341°
2026-05-06 19:05 47.31999 9.23097 29927 ft 451 kts 341°
2026-05-06 19:06 47.38138 9.21111 29928 ft 451 kts 341°
2026-05-06 19:06 47.44263 9.19129 29931 ft 451 kts 341°
2026-05-06 19:07 47.50400 9.17137 29928 ft 451 kts 341°
2026-05-06 19:07 47.56525 9.15150 29922 ft 450 kts 342°
2026-05-06 19:08 47.62617 9.13175 29929 ft 450 kts 342°
2026-05-06 19:08 47.68737 9.11180 29927 ft 450 kts 342°
2026-05-06 19:09 47.74853 9.09172 29928 ft 449 kts 342°
2026-05-06 19:09 47.80955 9.07166 29923 ft 448 kts 342°
2026-05-06 19:10 47.87045 9.05152 29922 ft 448 kts 342°
2026-05-06 19:10 47.93122 9.03136 29920 ft 447 kts 343°
2026-05-06 19:11 47.99173 9.01135 29908 ft 447 kts 343°
2026-05-06 19:11 48.05255 8.99122 29907 ft 447 kts 343°
2026-05-06 19:12 48.11326 8.97109 29914 ft 446 kts 343°
2026-05-06 19:12 48.17467 8.95660 29912 ft 449 kts 357°
2026-05-06 19:13 48.23667 8.96390 29915 ft 449 kts
2026-05-06 19:13 48.29889 8.97339 29911 ft 448 kts
2026-05-06 19:14 48.36089 8.98273 29905 ft 446 kts
2026-05-06 19:14 48.42269 8.99208 29898 ft 445 kts
2026-05-06 19:15 48.48421 9.00152 29890 ft 444 kts
2026-05-06 19:15 48.54554 9.01095 29881 ft 442 kts
2026-05-06 19:16 48.60638 9.02017 29877 ft 441 kts
2026-05-06 19:16 48.66740 9.03104 29877 ft 440 kts
2026-05-06 19:17 48.72785 9.04590 29872 ft 440 kts
2026-05-06 19:17 48.78817 9.06160 29869 ft 439 kts
2026-05-06 19:18 48.84846 9.07597 29873 ft 438 kts
2026-05-06 19:18 48.90887 9.06997 29869 ft 434 kts 345°
2026-05-06 19:19 48.96588 9.04219 29860 ft 433 kts 340°
2026-05-06 19:19 49.02316 9.01344 29855 ft 432 kts 341°
2026-05-06 19:20 49.08027 8.98486 29853 ft 431 kts 341°
2026-05-06 19:20 49.13730 8.95603 29848 ft 431 kts 341°
2026-05-06 19:21 49.19385 8.92729 29843 ft 430 kts 341°
2026-05-06 19:21 49.25066 8.89841 29840 ft 430 kts 341°
2026-05-06 19:22 49.30744 8.86941 29840 ft 430 kts 342°
2026-05-06 19:22 49.36408 8.84046 29837 ft 429 kts 342°
2026-05-06 19:23 49.42077 8.81208 29845 ft 428 kts 343°
2026-05-06 19:23 49.47796 8.78712 29847 ft 427 kts 345°
2026-05-06 19:24 49.53528 8.76307 29842 ft 426 kts 345°
2026-05-06 19:24 49.59238 8.73843 29842 ft 426 kts 344°
2026-05-06 19:25 49.64891 8.71357 29535 ft 417 kts 344°
2026-05-06 19:25 49.67658 8.70132 29254 ft 411 kts 344°
2026-05-06 19:25 49.70391 8.68923 28963 ft 407 kts 344°
2026-05-06 19:25 49.73113 8.67712 28671 ft 405 kts 344°
2026-05-06 19:26 49.75782 8.66523 28407 ft 403 kts 344°
2026-05-06 19:26 49.78472 8.65324 28125 ft 401 kts 344°
2026-05-06 19:26 49.81177 8.64122 27855 ft 399 kts 344°
2026-05-06 19:26 49.83809 8.62952 27582 ft 397 kts 344°
2026-05-06 19:27 49.86492 8.61763 27312 ft 395 kts 343°
2026-05-06 19:27 49.89133 8.60589 27044 ft 394 kts 343°
2026-05-06 19:27 49.91726 8.59431 26782 ft 392 kts 343°
2026-05-06 19:27 49.94377 8.58248 26518 ft 390 kts 343°
2026-05-06 19:28 49.96978 8.57091 26262 ft 388 kts 343°
2026-05-06 19:28 49.99558 8.55943 25980 ft 383 kts 343°
2026-05-06 19:28 50.02116 8.54801 25509 ft 382 kts 343°
2026-05-06 19:28 50.04639 8.53669 25019 ft 382 kts 343°
2026-05-06 19:29 50.07209 8.52454 24527 ft 380 kts 341°
2026-05-06 19:29 50.09710 8.51150 24054 ft 379 kts 340°
2026-05-06 19:29 50.12190 8.49786 23650 ft 375 kts 339°
2026-05-06 19:29 50.14635 8.48417 23215 ft 372 kts 339°
2026-05-06 19:30 50.16247 8.47516 22896 ft 370 kts 339°
2026-05-06 19:30 50.19444 8.45745 22271 ft 367 kts 339°
2026-05-06 19:30 50.21842 8.44430 21813 ft 364 kts 339°
2026-05-06 19:30 50.24237 8.43133 21255 ft 362 kts 339°
2026-05-06 19:31 50.26594 8.41863 20607 ft 355 kts 339°
2026-05-06 19:31 50.28161 8.41007 20177 ft 349 kts 336°
2026-05-06 19:31 50.32257 8.37368 18963 ft 339 kts 325°
2026-05-06 19:32 50.34255 8.35368 18454 ft 342 kts 325°
2026-05-06 19:32 50.36264 8.33363 17959 ft 343 kts 325°
2026-05-06 19:32 50.38305 8.31330 17412 ft 344 kts 325°
2026-05-06 19:32 50.40294 8.29344 16890 ft 344 kts 325°
2026-05-06 19:33 50.42317 8.27324 16372 ft 345 kts 325°
2026-05-06 19:33 50.44360 8.25283 15976 ft 342 kts 325°
2026-05-06 19:33 50.46357 8.23285 15592 ft 339 kts 325°
2026-05-06 19:33 50.48339 8.21301 15218 ft 336 kts 325°
2026-05-06 19:34 50.50277 8.19361 14908 ft 332 kts 324°
2026-05-06 19:34 50.52205 8.17423 14662 ft 325 kts 324°
2026-05-06 19:34 50.54095 8.15523 14415 ft 320 kts 324°
2026-05-06 19:34 50.55974 8.13624 14169 ft 314 kts 324°
2026-05-06 19:35 50.57795 8.11783 13929 ft 309 kts 324°
2026-05-06 19:35 50.59593 8.09972 13693 ft 306 kts 324°
2026-05-06 19:35 50.61379 8.08172 13430 ft 304 kts 324°
2026-05-06 19:35 50.63155 8.06374 13162 ft 302 kts 324°
2026-05-06 19:36 50.64907 8.04554 12765 ft 303 kts 320°
2026-05-06 19:36 50.66298 8.02094 11967 ft 311 kts 298°
2026-05-06 19:36 50.67007 7.98895 11286 ft 306 kts 280°
2026-05-06 19:36 50.67421 7.95665 10791 ft 296 kts 281°
2026-05-06 19:37 50.67837 7.92538 10300 ft 287 kts 281°
2026-05-06 19:37 50.68247 7.89507 9918 ft 276 kts 282°
2026-05-06 19:37 50.68636 7.86647 9842 ft 261 kts 282°
2026-05-06 19:37 50.69016 7.83851 9840 ft 260 kts 282°
2026-05-06 19:38 50.69391 7.81070 9842 ft 259 kts 282°
2026-05-06 19:38 50.69765 7.78291 9846 ft 259 kts 282°
2026-05-06 19:38 50.70140 7.75504 9667 ft 263 kts 283°
2026-05-06 19:38 50.70520 7.72662 9159 ft 260 kts 283°
2026-05-06 19:39 50.70885 7.69907 8640 ft 255 kts 283°
2026-05-06 19:39 50.71165 7.67157 8058 ft 253 kts 276°
2026-05-06 19:39 50.71262 7.64396 7473 ft 251 kts 274°
2026-05-06 19:39 50.71325 7.61657 6902 ft 249 kts 274°
2026-05-06 19:40 50.71384 7.58939 6347 ft 247 kts 274°
2026-05-06 19:40 50.71439 7.56252 5776 ft 244 kts 274°
2026-05-06 19:40 50.71490 7.53618 5429 ft 231 kts 274°
2026-05-06 19:40 50.71529 7.51185 5294 ft 213 kts 274°
2026-05-06 19:41 50.71562 7.48950 5159 ft 197 kts 273°
2026-05-06 19:41 50.71587 7.46853 4937 ft 189 kts 274°
2026-05-06 19:41 50.71610 7.44783 4611 ft 188 kts 274°
2026-05-06 19:41 50.71764 7.42754 4297 ft 185 kts 282°
2026-05-06 19:42 50.71998 7.40762 3970 ft 184 kts 283°
2026-05-06 19:42 50.72242 7.38781 3667 ft 184 kts 284°
2026-05-06 19:42 50.72478 7.36808 3363 ft 182 kts 283°
2026-05-06 19:42 50.72720 7.34882 3173 ft 173 kts 289°
2026-05-06 19:43 50.73431 7.33542 3081 ft 159 kts 334°
2026-05-06 19:43 50.74382 7.32673 3012 ft 158 kts 318°
2026-05-06 19:43 50.75177 7.31481 3002 ft 158 kts 319°
2026-05-06 19:43 50.75989 7.30312 2876 ft 158 kts 319°
2026-05-06 19:44 50.76800 7.29146 2694 ft 157 kts 319°
2026-05-06 19:44 50.77606 7.27986 2492 ft 157 kts 319°
2026-05-06 19:44 50.78411 7.26828 2282 ft 156 kts 319°
2026-05-06 19:44 50.79210 7.25676 2069 ft 155 kts 319°
2026-05-06 19:45 50.80006 7.24529 1856 ft 154 kts 319°
2026-05-06 19:45 50.80798 7.23387 1647 ft 154 kts 319°
2026-05-06 19:45 50.81591 7.22245 1417 ft 153 kts 318°
2026-05-06 19:45 50.82350 7.21148 1221 ft 142 kts 319°
2026-05-06 19:46 50.83062 7.20120 1007 ft 135 kts 318°
2026-05-06 19:46 50.83752 7.19125 808 ft 134 kts 317°
2026-05-06 19:46 50.84443 7.18126 637 ft 135 kts 317°
2026-05-06 19:46 50.85136 7.17125 463 ft 133 kts 318°
2026-05-06 19:47 50.85807 7.16151 306 ft 124 kts 318°
2026-05-06 19:47 50.86320 7.15412 287 ft 75 kts 317°
2026-05-06 19:47 50.86579 7.15040 276 ft 31 kts 318°
2026-05-06 19:47 50.86730 7.14826 269 ft 28 kts 316°
2026-05-06 19:48 50.86843 7.14592 262 ft 26 kts 298°
2026-05-06 19:48 50.86885 7.14348 259 ft 19 kts 281°
2026-05-06 19:48 50.86908 7.14146 255 ft 16 kts 286°
2026-05-06 19:48 50.86977 7.14000 249 ft 19 kts 317°
2026-05-06 19:49 50.87087 7.13843 242 ft 23 kts 317°
2026-05-06 19:49 50.87205 7.13672 238 ft 23 kts 317°
2026-05-06 19:49 50.87305 7.13529 234 ft 21 kts 317°
2026-05-06 19:49 50.87414 7.13368 232 ft 20 kts 317°
2026-05-06 19:50 50.87504 7.13239 233 ft 12 kts 318°
2026-05-06 19:50 50.87569 7.13143 233 ft 14 kts 317°
2026-05-06 19:50 50.87644 7.13034 233 ft 15 kts 317°
2026-05-06 19:50 50.87729 7.12913 233 ft 17 kts 317°
2026-05-06 19:51 50.87787 7.12814 232 ft 11 kts 293°
2026-05-06 19:51 50.87788 7.12688 232 ft 11 kts 283°
2026-05-06 19:51 50.87851 7.12610 234 ft 13 kts 349°
2026-05-06 19:51 50.87939 7.12648 232 ft 14 kts 28°
2026-05-06 19:52 50.88019 7.12596 232 ft 13 kts 316°
2026-05-06 19:52 50.88084 7.12503 232 ft 14 kts 318°
2026-05-06 19:52 50.88147 7.12381 232 ft 15 kts 287°
2026-05-06 19:52 50.88135 7.12235 232 ft 12 kts 294°
2026-05-06 19:53 50.88188 7.12126 232 ft 13 kts 305°
2026-05-06 19:53 50.88242 7.12009 232 ft 12 kts 306°
2026-05-06 19:53 50.88284 7.11935 232 ft 3 kts 360°
2026-05-06 19:53 50.88302 7.11962 232 ft 5 kts 40°
2026-05-06 19:54 50.88335 7.12000 232 ft 5 kts 37°
2026-05-06 19:54 50.88340 7.12006 233 ft 0 kts 36°
2026-05-06 19:54 50.88343 7.12010 233 ft 1 kts 36°
2026-05-06 19:54 50.88348 7.12016 232 ft 0 kts 36°